RH
80 91 92 92 94 94 94 94 86 77 86 91 91 94 100 99 99 100 96 63 62 66 61 54 45 48 46 55 57 58 84 87 66 57 45 35 32 25 22 26 25 23 26 23 27
83 91 93 93 94 94 93 92 95 82 69 77 83 88 94 99 97 96 69 65 72 77 72 60 65 64 62 62 65 84 93 78 58 50 46 39 32 28 28 32 30 28 26 30 34
86 93 94 95 94 92 94 91 87 86 81 75 84 78 84 82 86 79 57 72 81 82 76 67 72 66 65 59 72 81 87 64 53 45 44 43 38 31 32 36 33 30 30 26 34
83 94 94 90 95 92 91 85 84 84 82 85 84 76 68 87 89 65 62 67 80 83 82 76 74 76 71 85 68 80 69 64 58 52 54 52 37 40 35 33 29 31 32 30 32
78 90 97 94 94 90 88 81 82 91 90 81 86 82 81 96 87 53 54 54 72 78 86 84 86 79 76 68 67 77 69 60 59 57 53 49 52 46 41 34 33 33 31 33 34
82 78 91 94 94 90 79 82 76 80 80 82 84 82 86 92 52 46 56 53 55 72 83 81 84 74 75 71 70 60 60 61 55 55 52 55 52 45 40 36 37 34 34 35 35
80 81 84 88 90 88 80 85 86 84 86 88 91 86 95 79 51 51 52 57 51 61 65 75 75 80 74 74 60 61 76 67 60 58 58 51 61 58 41 37 38 37 35 36 34
84 81 84 90 83 88 84 92 93 91 83 77 84 89 93 53 53 48 46 52 54 55 48 46 53 71 65 64 71 76 76 88 57 57 54 54 74 50 40 43 42 41 40 41 35
78 81 84 84 84 77 83 87 84 73 72 87 86 88 88 54 63 52 56 56 47 46 45 44 43 57 62 85 87 86 96 84 75 54 56 60 63 46 43 45 45 44 44 41 40
80 82 84 81 84 76 85 90 90 78 73 91 82 90 75 63 55 57 55 53 49 47 50 54 62 78 89 89 92 77 91 80 75 65 61 62 62 55 46 46 43 39 43 42 44
75 79 84 84 89 79 93 97 90 97 97 88 79 73 48 53 51 55 56 53 54 58 77 64 86 87 80 81 80 83 78 84 73 60 72 68 63 52 49 50 49 46 45 41 48
74 78 84 85 92 79 89 91 76 69 95 83 79 71 57 58 61 59 54 67 72 87 76 78 88 63 64 69 81 84 92 89 70 59 63 74 74 58 47 46 44 42 45 44 51
77 73 82 81 93 91 96 82 76 74 95 81 82 81 72 64 69 64 57 65 75 84 76 77 64 59 67 75 84 83 89 83 83 66 59 58 66 62 54 45 43 40 42 44 48
82 76 84 94 93 97 94 83 79 77 92 86 88 80 75 69 79 54 51 57 71 83 75 74 65 67 70 78 76 91 70 72 74 79 87 64 86 67 54 53 47 40 48 48 51
82 85 87 83 66 94 74 84 82 90 83 70 85 69 71 78 72 72 51 58 88 84 80 86 83 80 79 70 63 77 60 66 71 81 86 74 86 64 56 58 52 42 49 48 50
94 94 89 77 81 75 73 78 87 92 90 93 83 90 90 87 78 76 69 61 82 88 76 73 63 65 63 55 60 66 68 68 74 75 96 66 72 63 68 55 48 42 44 46 50
100 98 95 80 91 78 88 86 96 94 60 96 89 89 79 82 82 81 85 96 99 99 98 98 95 76 69 70 62 65 78 91 98 97 83 58 68 61 60 53 40 38 47 52 51
100 99 93 78 76 86 81 90 90 64 81 73 76 76 87 72 91 80 93 96 87 99 100 97 98 96 73 71 78 76 74 89 91 99 72 58 82 74 52 41 38 41 40 51 56
100 100 100 91 84 84 87 99 83 68 78 77 81 92 94 86 81 87 90 90 65 91 96 98 95 72 70 60 60 86 94 61 79 80 89 84 76 64 53 45 44 41 48 56 61
100 99 97 91 88 90 96 96 75 76 84 80 88 91 88 79 88 93 86 69 72 84 72 83 97 74 75 69 68 75 62 91 95 98 96 87 93 66 50 48 54 54 56 59 64
99 97 100 96 94 97 99 97 74 80 76 85 90 95 86 87 80 80 79 72 75 75 81 79 85 91 87 96 76 85 94 75 66 75 99 81 78 60 39 42 54 53 55 63 68
98 100 100 100 98 97 100 80 64 82 76 81 84 92 93 87 93 93 86 65 62 59 88 69 89 96 86 61 64 74 71 72 80 76 70 90 74 36 44 42 53 57 60 60 63
94 98 100 88 98 98 88 79 77 84 82 90 94 87 75 84 84 78 64 49 62 58 66 75 100 97 95 88 90 98 82 68 65 89 94 97 69 42 47 55 54 54 58 61 66
96 98 100 98 89 93 86 86 88 78 77 85 90 81 84 83 65 61 63 56 62 62 78 87 100 98 90 100 88 99 80 72 70 73 72 93 78 56 48 47 57 60 60 62 65
99 94 84 94 97 86 84 81 88 94 88 87 95 93 90 88 67 67 56 59 65 76 88 94 100 100 97 94 97 73 70 73 82 79 88 70 69 46 44 42 52 58 62 63 66
98 96 86 84 83 90 88 92 85 85 89 95 97 81 86 92 55 50 55 58 71 86 90 95 98 100 99 89 94 88 72 77 76 89 93 86 94 36 48 50 61 62 60 61 63
94 81 80 85 85 94 96 89 86 76 82 80 85 90 89 80 63 56 59 47 60 78 93 97 100 100 100 89 88 97 78 75 75 79 88 98 76 43 44 43 58 66 55 57 60
Wind_Speed
9 8 7 6 5 4 4 4 3 3 2 3 2 8 10 9 8 10 6 7 3 4 3 6 4 8 3 2 2 2 2 6 9 8 9 3 3 6 5 4 2 3 5 5 10
9 9 8 7 6 4 4 3 2 2 2 3 2 2 1 5 7 13 22 12 11 8 4 1 2 9 2 3 3 5 6 10 7 9 7 3 5 4 3 4 2 1 3 7 17
11 10 9 9 7 5 3 4 2 2 2 1 2 1 1 2 3 7 14 24 21 10 5 2 2 0 2 3 4 5 11 7 5 10 8 6 3 5 6 5 5 3 2 3 6
13 12 10 10 8 6 4 3 1 1 1 1 1 1 5 6 6 1 3 4 17 19 12 3 2 4 3 5 5 7 7 8 3 6 5 3 4 6 5 7 6 6 5 3 8
15 13 12 11 10 8 6 4 2 1 2 1 1 2 4 3 7 3 6 4 8 17 16 6 5 4 5 4 4 6 5 9 9 12 15 13 12 10 9 10 8 8 7 7 8
17 14 14 12 11 10 7 6 4 3 2 1 2 4 2 6 9 14 8 1 3 10 13 11 6 6 4 6 6 5 6 7 10 13 9 16 19 6 12 9 9 8 10 9 9
18 17 16 14 13 12 9 6 5 4 4 3 3 4 3 12 7 5 4 13 11 8 3 18 17 2 1 4 4 5 8 9 7 4 5 9 22 19 10 8 9 9 10 8 9
19 19 17 16 13 13 11 8 7 6 4 4 3 3 6 8 8 20 12 8 17 12 9 7 7 6 4 5 6 3 3 4 4 8 5 7 27 9 9 9 11 11 11 8 9
21 20 19 16 14 15 13 10 8 6 5 3 4 3 7 6 6 18 13 7 5 8 12 11 4 3 3 3 4 4 5 6 4 6 5 13 27 14 10 8 10 10 10 8 7
22 21 20 18 15 14 12 11 7 5 4 5 3 1 5 4 6 5 13 12 4 1 3 3 2 2 2 5 14 10 6 6 5 4 7 16 21 9 8 9 12 14 9 8 10
23 22 21 19 17 15 15 7 2 2 6 7 7 3 2 3 8 4 14 6 2 1 5 1 3 10 13 13 7 5 6 7 4 4 7 13 18 17 13 12 10 12 8 8 9
24 23 21 20 19 17 18 4 4 3 2 12 10 12 12 6 2 3 13 6 7 11 5 4 12 12 8 10 9 11 12 15 8 9 10 10 16 16 16 18 14 16 9 9 6
26 24 23 20 19 18 21 13 8 2 1 4 5 6 6 8 6 6 13 6 6 12 14 17 6 13 13 12 10 15 17 11 9 10 18 13 21 14 16 17 13 14 8 10 17
27 24 24 23 14 15 11 17 11 3 2 4 3 2 3 4 4 18 19 9 5 15 12 13 15 8 12 15 11 16 10 13 11 7 7 2 11 9 12 18 14 18 9 13 13
26 25 29 31 12 13 9 22 16 2 3 5 4 2 3 6 3 1 16 14 13 9 7 8 8 19 20 17 14 9 8 9 8 8 8 18 10 10 12 13 18 23 12 15 18
27 29 34 25 11 13 16 22 11 3 7 6 4 4 3 5 3 2 4 8 1 15 16 8 1 8 9 14 14 3 7 5 3 4 9 19 12 13 13 15 12 13 13 15 17
19 35 38 30 11 23 30 10 3 4 2 6 5 5 7 7 7 8 8 7 5 7 8 5 16 5 3 5 11 11 4 3 3 6 10 6 12 20 9 11 15 18 14 14 17
16 42 38 27 25 36 16 2 3 4 5 3 4 8 7 7 6 8 5 8 14 7 2 8 4 16 9 11 5 15 14 4 6 3 5 8 10 6 16 26 17 11 15 18 18
16 39 26 24 37 35 7 3 6 5 6 9 5 6 6 6 4 8 8 9 9 15 8 5 4 4 7 9 12 4 9 20 6 5 5 6 4 8 13 10 9 15 18 21 20
12 18 18 36 40 18 5 4 4 4 6 5 7 9 7 6 9 7 7 5 9 16 9 6 3 5 5 6 7 8 5 5 4 6 5 4 5 10 13 13 8 15 19 18 17
16 8 25 41 33 6 4 5 4 5 6 6 6 5 7 5 8 5 6 5 11 14 19 6 5 2 4 9 12 6 11 7 7 7 3 4 6 9 13 10 14 14 18 20 19
2 4 33 41 5 3 3 5 4 5 2 3 4 7 8 9 7 7 9 8 11 7 12 11 4 8 18 4 10 19 20 19 6 7 9 6 7 3 9 13 16 16 16 15 16
8 3 27 27 5 6 4 4 4 6 8 7 9 10 11 6 5 10 7 8 8 12 9 10 5 4 4 8 12 12 19 20 15 5 6 4 6 7 6 8 10 15 13 14 14
3 5 3 3 4 6 10 6 6 6 9 8 5 13 7 7 10 3 7 4 12 8 14 12 3 6 9 3 9 8 23 22 21 10 8 9 17 22 6 10 8 9 13 15 15
2 3 5 8 7 10 11 6 10 7 7 10 4 11 7 6 7 10 8 2 6 11 10 8 6 9 15 18 12 17 24 22 22 6 8 9 14 15 9 11 12 11 12 14 14
2 3 3 8 10 7 12 10 11 8 7 6 9 9 16 11 6 1 5 5 6 12 9 4 5 4 6 10 16 16 20 17 14 5 5 21 27 5 4 7 8 13 15 15 15
4 3 4 10 10 8 5 7 10 6 9 12 14 11 8 16 14 9 7 8 9 10 9 4 3 4 5 5 8 6 18 20 14 12 15 14 23 5 4 6 8 10 15 17 16
Wind_Direction
267 261 263 267 276 285 284 279 294 302 313 333 344 236 239 239 225 240 236 237 198 261 290 325 322 351 327 227 231 143 196 215 212 199 236 279 331 318 307 144 178 126 157 245 175
265 251 252 257 262 268 281 274 295 321 309 293 303 34 154 196 231 239 245 239 230 256 275 40 339 360 332 240 216 181 216 216 203 215 237 217 201 270 326 321 274 11 8 101 155
260 248 243 251 253 252 258 294 318 340 322 289 288 239 155 130 254 238 262 246 236 226 236 232 271 112 231 219 225 221 238 225 240 225 233 271 278 245 211 221 219 206 146 129 177
261 248 238 240 244 244 233 249 285 335 305 5 238 226 188 181 226 282 271 276 216 219 229 213 211 163 223 223 230 255 245 240 251 272 284 246 284 292 255 232 202 214 184 202 205
260 247 240 236 237 242 231 227 221 191 301 242 189 190 174 198 244 137 97 84 173 206 199 192 195 172 198 218 280 249 266 254 261 254 268 276 264 256 254 253 253 265 271 240 255
255 249 239 238 234 236 231 223 213 221 229 285 243 202 214 242 236 228 220 138 174 183 207 198 213 212 253 230 240 289 302 289 261 263 259 256 269 235 267 240 241 250 265 267 271
251 252 238 237 232 232 225 216 214 216 217 215 221 239 251 238 217 143 236 254 228 195 199 220 229 282 90 289 318 275 300 300 245 242 272 269 271 252 250 260 243 251 258 263 258
249 247 238 235 232 223 218 213 217 221 223 216 197 196 248 259 255 260 250 283 242 244 246 250 232 224 221 294 335 341 267 248 199 195 222 196 261 253 234 222 238 244 256 257 239
244 243 233 228 229 220 214 212 210 219 235 212 179 180 263 299 234 242 233 226 194 225 250 254 249 218 345 218 275 240 261 260 281 209 220 208 260 243 246 223 243 247 249 246 232
241 235 228 222 217 214 212 199 200 223 234 212 214 226 258 231 217 212 204 210 234 47 305 187 130 174 139 195 227 229 243 251 225 322 217 255 267 264 268 229 230 247 239 232 204
238 235 227 216 207 200 180 143 105 228 217 201 184 222 256 220 186 197 192 142 172 145 196 225 198 218 224 223 248 298 271 257 357 318 313 270 272 258 252 255 236 245 244 215 214
235 231 223 209 202 194 193 187 203 134 254 235 240 233 265 334 270 199 168 165 179 222 158 258 239 227 231 230 238 252 267 269 288 260 271 277 281 277 251 246 235 239 231 210 169
237 225 213 199 191 186 192 205 161 109 237 235 224 222 227 213 225 213 165 181 195 217 215 226 236 231 217 225 224 238 242 257 264 302 286 285 283 265 256 248 246 245 214 188 182
240 220 197 175 168 188 204 198 180 186 272 206 219 236 203 175 255 216 193 176 220 216 223 240 228 248 207 223 217 244 210 241 259 275 263 37 279 255 241 239 237 245 189 190 185
237 212 183 179 159 174 198 186 189 152 348 166 155 339 153 190 141 262 208 202 212 196 177 211 208 221 238 234 212 244 218 225 237 252 268 257 268 265 233 240 225 230 196 195 184
236 205 183 173 162 185 170 167 149 47 251 167 129 178 174 199 201 113 172 229 354 227 229 221 68 213 218 226 214 143 229 269 301 286 243 244 223 255 232 230 231 226 200 193 178
239 194 179 179 167 161 153 135 100 167 188 164 171 187 199 197 210 191 185 211 217 203 211 197 225 264 232 179 210 211 157 258 225 202 240 183 209 240 252 242 221 218 194 182 170
279 185 181 174 166 155 154 130 183 192 167 124 142 182 196 196 218 207 225 222 233 218 270 207 220 197 195 219 175 199 196 202 207 214 255 164 241 235 221 243 243 238 198 164 162
278 169 168 172 164 156 155 187 211 191 141 158 151 198 211 213 221 205 227 232 226 201 203 202 248 178 203 192 187 192 205 218 311 253 257 232 268 279 254 253 229 227 168 171 159
270 170 171 165 164 151 176 231 207 122 121 142 191 182 197 190 191 195 212 221 219 191 199 192 250 202 155 174 232 223 141 147 194 236 234 250 261 240 213 216 164 163 166 162 155
289 164 153 164 156 163 194 217 190 149 138 182 198 213 215 182 194 190 244 243 206 190 194 175 185 156 142 195 197 195 228 232 174 229 276 257 238 214 240 191 171 177 165 161 160
159 154 157 152 146 164 183 181 155 145 173 176 221 220 206 187 189 211 223 231 189 158 179 203 198 218 225 188 204 220 218 215 208 203 238 309 282 248 224 175 167 176 168 158 153
147 113 158 161 153 179 158 185 155 169 186 206 212 214 208 213 222 196 215 213 171 174 188 171 215 249 251 198 197 212 207 199 229 136 235 220 264 2 121 125 167 153 148 149 144
106 144 123 192 149 139 186 197 192 201 228 208 219 225 208 229 234 262 228 226 180 164 154 169 237 228 237 7 145 182 198 194 211 223 219 248 291 291 151 141 136 142 145 149 154
138 126 126 178 174 174 184 190 192 202 210 205 232 231 213 228 222 236 234 134 176 160 159 178 244 230 247 243 242 185 190 196 214 221 210 275 281 238 172 171 169 151 140 146 157
160 137 114 162 156 155 178 196 209 194 194 191 223 223 216 231 207 190 210 190 195 170 184 188 272 247 277 217 202 201 182 184 184 154 247 251 269 273 90 102 135 155 157 165 169
225 65 133 150 173 180 201 209 220 217 207 215 213 248 243 225 245 247 246 248 166 162 183 227 271 316 355 133 143 153 185 186 195 198 207 229 246 188 162 154 159 158 168 172 173